• In Latvia
  • List of Countries
  • For 7 days
  • Water Temperature
  • Satellite Maps
  • Weather Map
  • Weather Widgets
  • user-avatar
    Login

    Hourly Weather Domanovo

    Today, 16 November, Friday

    Time Temperature Precipitation Wind Pressure Humidity
    00:00 -3°C° 0 mm 2 mps 768 mmHg 67%
    01:00 -3°C° 0 mm 2 mps 769 mmHg 68%
    02:00 -3°C° 0 mm 2 mps 769 mmHg 68%
    03:00 -3°C° 0 mm 2 mps 769 mmHg 67%
    04:00 -3°C° 0 mm 2 mps 769 mmHg 68%
    05:00 -3°C° 0 mm 2 mps 769 mmHg 69%
    06:00 -3°C° 0 mm 2 mps 770 mmHg 69%
    07:00 -3°C° 0 mm 2 mps 770 mmHg 70%
    08:00 -3°C° 0 mm 2 mps 770 mmHg 71%
    09:00 -3°C° 0 mm 2 mps 770 mmHg 72%
    10:00 -2°C° 0 mm 2 mps 770 mmHg 70%
    11:00 -1°C° 0 mm 2 mps 770 mmHg 68%
    12:00 -1°C° 0 mm 3 mps 771 mmHg 66%
    13:00 -1°C° 0 mm 3 mps 770 mmHg 68%
    14:00 -1°C° 0 mm 2 mps 770 mmHg 70%
    15:00 -1°C° 0 mm 2 mps 770 mmHg 71%
    16:00 -1°C° 0 mm 2 mps 770 mmHg 75%
    17:00 -2°C° 0 mm 2 mps 770 mmHg 78%
    18:00 -2°C° 0 mm 3 mps 770 mmHg 82%
    19:00 -2°C° 0 mm 3 mps 770 mmHg 83%
    20:00 -2°C° 0 mm 3 mps 770 mmHg 85%
    21:00 -2°C° 0 mm 3 mps 769 mmHg 87%
    22:00 -2°C° 0 mm 3 mps 769 mmHg 88%
    23:00 -2°C° 0 mm 3 mps 769 mmHg 89%

    Tomorrow, 17 November, Saturday

    Time Temperature Precipitation Wind Pressure Humidity
    00:00 -2°C° 0 mm 3 mps 769 mmHg 90%
    01:00 -2°C° 0 mm 3 mps 768 mmHg 90%
    02:00 -2°C° 0 mm 3 mps 768 mmHg 90%
    03:00 -2°C° 0 mm 3 mps 768 mmHg 91%
    04:00 -3°C° 0 mm 4 mps 767 mmHg 90%
    05:00 -3°C° 0 mm 4 mps 767 mmHg 89%
    06:00 -3°C° 0 mm 4 mps 766 mmHg 89%
    07:00 -2°C° 0.1 mm 4 mps 765 mmHg 88%
    08:00 -2°C° 0.1 mm 4 mps 765 mmHg 87%
    09:00 -2°C° 0.1 mm 4 mps 764 mmHg 86%
    10:00 -2°C° 0.3 mm 4 mps 764 mmHg 86%
    11:00 -1°C° 0.3 mm 5 mps 763 mmHg 85%
    12:00 -1°C° 0.3 mm 5 mps 762 mmHg 85%
    13:00 -1°C° 0.7 mm 5 mps 762 mmHg 85%
    14:00 -1°C° 0.7 mm 4 mps 761 mmHg 85%
    15:00 0°C° 0.7 mm 4 mps 760 mmHg 86%
    16:00 0°C° 0.8 mm 5 mps 760 mmHg 87%
    17:00 0°C° 0.8 mm 5 mps 759 mmHg 88%
    18:00 0°C° 0.8 mm 5 mps 758 mmHg 89%
    19:00 0°C° 0.3 mm 5 mps 757 mmHg 90%
    20:00 0°C° 0.3 mm 5 mps 756 mmHg 91%
    21:00 0°C° 0.3 mm 5 mps 755 mmHg 92%
    22:00 0°C° 0.2 mm 4 mps 754 mmHg 92%
    23:00 0°C° 0.2 mm 4 mps 754 mmHg 93%

    Day after tomorrow, 18 November, Sunday

    Time Temperature Precipitation Wind Pressure Humidity
    00:00 0°C° 0.2 mm 4 mps 753 mmHg 94%
    01:00 0°C° 0.1 mm 3 mps 753 mmHg 94%
    02:00 0°C° 0.1 mm 3 mps 752 mmHg 95%
    03:00 0°C° 0.1 mm 3 mps 751 mmHg 95%
    04:00 0°C° 0.4 mm 3 mps 751 mmHg 96%
    05:00 +1°C° 0.4 mm 2 mps 751 mmHg 96%
    06:00 +1°C° 0.4 mm 2 mps 750 mmHg 97%
    07:00 +1°C° 0.3 mm 2 mps 750 mmHg 97%
    08:00 +2°C° 0.3 mm 1 mps 750 mmHg 98%
    09:00 +2°C° 0.3 mm 1 mps 750 mmHg 98%
    10:00 +2°C° 0.2 mm 1 mps 750 mmHg 98%
    11:00 +2°C° 0.2 mm 1 mps 750 mmHg 97%
    12:00 +3°C° 0.2 mm 1 mps 751 mmHg 97%
    13:00 +3°C° 0.2 mm 1 mps 751 mmHg 98%
    14:00 +3°C° 0.2 mm 1 mps 751 mmHg 98%
    15:00 +3°C° 0.2 mm 1 mps 752 mmHg 98%
    16:00 +3°C° 0.1 mm 1 mps 752 mmHg 98%
    17:00 +1°C° 0.1 mm 2 mps 752 mmHg 98%
    18:00 +1°C° 0.1 mm 2 mps 753 mmHg 97%
    19:00 +1°C° 0.1 mm 2 mps 753 mmHg 97%
    20:00 +1°C° 0.1 mm 2 mps 753 mmHg 97%
    21:00 +1°C° 0.1 mm 2 mps 754 mmHg 97%
    22:00 +1°C° 0.1 mm 2 mps 754 mmHg 97%
    23:00 +1°C° 0.1 mm 2 mps 754 mmHg 97%

    19 November, Monday

    Time Temperature Precipitation Wind Pressure Humidity
    00:00 -1°C° 0.1 mm 2 mps 755 mmHg 96%
    01:00 -1°C° 0.2 mm 2 mps 755 mmHg 96%
    02:00 -1°C° 0.2 mm 2 mps 756 mmHg 96%
    03:00 -1°C° 0.2 mm 2 mps 756 mmHg 96%
    04:00 -1°C° 0.1 mm 2 mps 756 mmHg 96%
    05:00 -1°C° 0.1 mm 2 mps 757 mmHg 96%
    06:00 -1°C° 0.1 mm 2 mps 757 mmHg 96%
    07:00 -1°C° 0.2 mm 3 mps 757 mmHg 95%
    08:00 0°C° 0.2 mm 3 mps 758 mmHg 95%
    09:00 0°C° 0.2 mm 3 mps 758 mmHg 94%
    10:00 0°C° 0.1 mm 3 mps 759 mmHg 94%
    11:00 0°C° 0.1 mm 3 mps 760 mmHg 93%
    12:00 0°C° 0.1 mm 3 mps 760 mmHg 93%
    13:00 0°C° 0 mm 3 mps 761 mmHg 93%
    14:00 0°C° 0 mm 3 mps 761 mmHg 92%
    15:00 0°C° 0 mm 3 mps 762 mmHg 92%
    16:00 +1°C° 0 mm 2 mps 762 mmHg 93%
    17:00 -1°C° 0 mm 2 mps 763 mmHg 93%
    18:00 -1°C° 0 mm 2 mps 763 mmHg 94%
    19:00 -1°C° 0 mm 2 mps 764 mmHg 94%
    20:00 -1°C° 0 mm 2 mps 764 mmHg 94%
    21:00 -1°C° 0 mm 2 mps 764 mmHg 94%
    22:00 -2°C° 0 mm 2 mps 765 mmHg 94%
    23:00 -2°C° 0 mm 2 mps 765 mmHg 95%

    20 November, Tuesday

    Time Temperature Precipitation Wind Pressure Humidity
    00:00 -2°C° 0 mm 2 mps 766 mmHg 95%
    01:00 -3°C° 0 mm 2 mps 766 mmHg 94%
    02:00 -4°C° 0 mm 2 mps 766 mmHg 94%
    03:00 -4°C° 0 mm 2 mps 766 mmHg 94%
    04:00 -4°C° 0 mm 2 mps 766 mmHg 92%
    05:00 -5°C° 0 mm 2 mps 766 mmHg 91%
    06:00 -5°C° 0 mm 2 mps 766 mmHg 89%
    07:00 -5°C° 0 mm 2 mps 766 mmHg 88%
    08:00 -5°C° 0 mm 2 mps 766 mmHg 86%
    09:00 -5°C° 0 mm 2 mps 766 mmHg 85%
    10:00 -4°C° 0 mm 2 mps 765 mmHg 81%
    11:00 -4°C° 0 mm 2 mps 765 mmHg 77%
    12:00 -1°C° 0 mm 1 mps 765 mmHg 73%
    13:00 -1°C° 0 mm 1 mps 765 mmHg 75%
    14:00 -1°C° 0 mm 1 mps 765 mmHg 77%
    15:00 -1°C° 0 mm 1 mps 764 mmHg 79%
    16:00 -2°C° 0 mm 1 mps 764 mmHg 80%
    17:00 -2°C° 0 mm 1 mps 764 mmHg 81%
    18:00 -3°C° 0 mm 1 mps 764 mmHg 82%
    19:00 -3°C° 0 mm 1 mps 763 mmHg 81%
    20:00 -3°C° 0 mm 1 mps 763 mmHg 81%
    21:00 -3°C° 0 mm 1 mps 763 mmHg 80%
    22:00 -3°C° 0 mm 1 mps 763 mmHg 80%
    23:00 -3°C° 0 mm 1 mps 762 mmHg 79%

    21 November, Wednesday

    Time Temperature Precipitation Wind Pressure Humidity
    00:00 -3°C° 0 mm 1 mps 762 mmHg 79%
    01:00 -3°C° 0 mm 1 mps 762 mmHg 78%
    02:00 -4°C° 0 mm 1 mps 762 mmHg 78%
    03:00 -4°C° 0 mm 1 mps 761 mmHg 77%
    04:00 -4°C° 0 mm 1 mps 761 mmHg 77%
    05:00 -5°C° 0 mm 0 mps 761 mmHg 77%
    06:00 -5°C° 0 mm 0 mps 761 mmHg 76%
    07:00 -5°C° 0 mm 0 mps 761 mmHg 76%
    08:00 -4°C° 0 mm 1 mps 761 mmHg 76%
    09:00 -4°C° 0 mm 1 mps 760 mmHg 76%
    10:00 -3°C° 0 mm 1 mps 760 mmHg 74%
    11:00 -3°C° 0 mm 0 mps 760 mmHg 72%
    12:00 -2°C° 0 mm 0 mps 760 mmHg 70%
    13:00 -2°C° 0 mm 1 mps 760 mmHg 72%
    14:00 -2°C° 0 mm 1 mps 760 mmHg 74%
    15:00 -2°C° 0 mm 1 mps 759 mmHg 76%
    16:00 -3°C° 0 mm 1 mps 759 mmHg 77%
    17:00 -3°C° 0 mm 1 mps 759 mmHg 79%
    18:00 -4°C° 0 mm 1 mps 759 mmHg 80%
    19:00 -4°C° 0 mm 1 mps 759 mmHg 81%
    20:00 -4°C° 0 mm 1 mps 758 mmHg 82%
    21:00 -6°C° 0 mm 2 mps 758 mmHg 83%
    22:00 -6°C° 0 mm 2 mps 758 mmHg 84%
    23:00 -7°C° 0 mm 2 mps 758 mmHg 85%
    Show more